Погода в Бресте

Погода в Бресте : погода сейчас, прогноз погоды и архив. Всё, что Вы хотите узнать о погоде в Бресте!

Поиск расширенной информации на нашем сайте:

Другие новости

Новости СМИ2

Главная страница сайта

Новости сайта

02.10.2013

Напоминаем, что на нашем новом сайте вы можете получить высокодетализированные прогнозы погоды по пунктам России, СНГ и мира (включающие важные для авиации метеовеличины, такие как направление и скорость ветра, видимость, явления погоды, количество и форма облачности, нижняя и верхняя граница облачности), а также ознакомиться с разнообразными материалами по авиационной метеорологии и подборкой полезных ссылок на эту тему.

Сайт Метеоцентр.Азия посвящён разработке технологий оптимизации авиаметеорологического обслуживания, включая проектирование и перспективное создание нескольких автоматизированных авиаметеорологических систем:
- система выпуска высокодетальных прогностических карт явлений погоды для нижнего воздушного пространства по России и ближнему зарубежью;
- система верификации прогнозов TAF (выпускаемых синоптиками официальных АМСГ РФ и ближнего зарубежья) и AUTOTAF (выпускаемых сайтом Метеоцентр.Азия) - выявление ошибок, онлайн-сопоставление с фактической погодой METAR, автоматическое внесение коррективов в прогнозы при резком отклонении фактической погоды от прогноза, подсчёт оправдываемости прогнозов по элементам и в целом;
- система обработки, анализа и отображения авиаметеорологической информации для применения провайдерами метеорологической информации.


Погода в Бресте - сегодня

Время (UTC), дата Ветер
(°,м/с) 
Видим.   Явления Облачность Т
(°С)
Тd
(°С)
f(%) Тe
(°С)
Pmin
(гПа)
dP
(гПа)
Po
(мм)
O2
(г/м3)
Тmin Tmax R s Состояние
почвы
18 18.01.17 220 (ЮЗ) 5000 м  дымка  10/10 900 м 
[Sc]
-5.3 -7.1 87 -5  1042.4  0.1  767  316    -4.5    15   
21 18.01.17 тихо ()   3300 м  дымка  ясно 
-8.6 -9.5 93 -9  1042.7  0.1  767  320           
00 19.01.17 тихо ()   3600 м  дымка  ясно 
-10.6 -11.8 91 -11  1042.6  -0.3  767  323           
03 19.01.17 230 (ЮЗ) 8000 м  дымка  10/10 330 м 
[St]
-8.7 -10.2 89 -8  1041.7  -0.7  767  320        15   
06 19.01.17 250 (З) 6000 м  дымка  10/10 210 м 
[St]
-8.1 -9.4 90 -11  1040.8  -0.9  766  319  -10.9      15  равномерный
сухой снег
100% 
09 19.01.17 230 (ЮЗ) 6000 м  дымка  10/10 150 м 
[St]
-8.6 -9.8 91 -11  1041.2  0.4  766  320           
12 19.01.17 230 (ЮЗ) 8000 м  дымка  10/10 210 м 
[St]
-7.8 -9.6 87 -11  1039.4  -1.7  765  318           
15 19.01.17 210 (ЮЗ) 8000 м  дымка  9/9 1200 м 
[Sc]
-6.5 -8.8 84 -9  1037.9  -1.4  764  316           
18 19.01.17 220 (ЮЗ) 6000 м  дымка  10/10 630 м 
[Sc]
-6.5 -8.6 85 -9  1036.6  -1.3  763  316    -6.4       
21 19.01.17 230 (ЮЗ) 6000 м  дымка  10/10 420 м 
[Sc]
-5.6 -7.9 84 -8  1035.5  -1  762  314           
00 20.01.17 240 (ЮЗ) 2500 м  дымка  10/10 210 м 
[St]
-5.2 -6.4 91 -8  1034.1  -1.3  761  313           
03 20.01.17 250 (З) 1600 м  дымка  10/10 120 м 
[St]
-4.9 -5.6 95 -7  1033.2  -0.9  761  313        15   
06 20.01.17 260 (З) 1800 м  слаб. переохл. морось (гололёд) [диам. гололёда 1 мм]  10/10 100 м 
[St]
-4.2 -4.9 95 -6  1032.3  -0.8  760  312  -6.5    0.0  15  равномерный
сухой снег
100% 
09 20.01.17 250 (З) 2200 м  слаб. переохл. морось (гололёд) [диам. гололёда 3 мм]  10/10 120 м 
[St]
-3.2 -4 94 -4  1032.5  0.3  760  310           
12 20.01.17 260 (З) 2200 м  слаб. переохл. морось (гололёд) [диам. гололёда 4 мм]  10/10 120 м 
[St]
-2 -3 93 -4  1031.2  -1.2  759  309           
15 20.01.17 250 (З) 1800 м  слаб. снег{морось} [диам. гололёда 4 мм]  10/10 150 м 
[Frnb|Ns]
-1.6 -2.3 95 -3  1030.5  -0.7  759  308      0.0     
18 20.01.17 240 (ЮЗ) 1500 м  дымка{снег, морось} [диам. гололёда 3 мм]  10/10 150 м 
[St]
-1.2 -1.9 95 -2  1029.6  -0.9  758  307    -1.2  0.0  14   
21 20.01.17 280 (З) 5000 м  дымка{снег} [диам. гололёда 2 мм]  10/10 180 м 
[St]
-0.2 -0.9 95 -2  1029.2  -0.3  758  306           
00 21.01.17 270 (З) 5000 м  дымка{снег} [диам. гололёда 1 мм]  10/10 150 м 
[St]
+0.1 -0.8 94 -2  1028.3  -0.8  757  305           
03 21.01.17 260 (З) 6000 м  дымка{морось}  10/10 150 м 
[St]
+0.4 -0.5 94 -1  1027.8  -0.5  757  305      0.0  13   
06 21.01.17 260 (З) 2600 м  дымка{морось}  10/10 100 м 
[St]
+0.9 +0.3 96 -1  1028.2  0.4  757  304  -1.2    0.0  13  равномерный
мокрый или
старый снег
100% 
09 21.01.17 280 (З) 2100 м  слаб. морось  10/10 60 м 
[St]
+1.4 +0.7 95 +1  1030  1.8  759  304           
12 21.01.17 290 (З) 6000 м  дымка{морось}  10/10 120 м 
[St]
+1.9 +0.9 93 1029.8  -0.1  759  303           
15 21.01.17 290 (З) 5000 м  дымка  10/10 100 м 
[St]
+1.5 +0.6 94 1030.8  0.9  759  304      0.0     
18 21.01.17 290 (З) 8000 м  дымка  10/10 120 м 
[St]
+1.3 +0.3 93 +1  1032.1  1.3  760  305    +1.9  0.0  11   
Время (UTC), дата Ветер
(°,м/с) 
Видим.   Явления Облачность Т
(°С)
Тd
(°С)
f(%) Тe
(°С)
Pmin
(гПа)
dP
(гПа)
Po
(мм)
O2
(г/м3)
Тmin Tmax R s Состояние
почвы

Для получения пояснительной информации подведите курсор к названию столбца.

ПОГОДА в Бресте - архив

Всё, что Вы хотите узнать о погоде в Бресте - удобно и подробно!

Выберите нужную дату (начиная с 1 января 2015* года) и нажмите кнопку "Найти".
Будут отображены архивные сводки погоды по пункту Брест, начиная с указанной даты.


Отображать данные в формате CSV (для использования в таблицах Excel)


Внимание! Наш архив погоды предназначен исключительно для личного некоммерческого использования в познавательных целях. Если Вам необходимы официальные справки о состоянии погоды (для производственных, юридических, коммерческих и т.п. целей), обращайтесь в органы Росгидромета.

*Примечание: данная дата относится к архиву по метеостанциям СССР (Россия, СНГ, Балтия).
Архив по метеостанциям Зарубежной Европы и Азии (кроме Китая) хранится 10 дней, по другим регионам земного шара (Китай, Африка, Америка, Австралия, Океания) - 1 день.

Брест - район местоположения метеостанции


Название, широта, долгота, высота метеостанции:
Брест 52.1°ш. 23.7°д. 146 м над ур. моря [Беларусь]

Дополнительная информация

В oтличие oт бoльшинства пoгoдных сайтoв мы публикуем пoдрoбную метеoинфoрмацию в детальнoм прoфессиoнальнoм фoрмате.

Характеристики температуры и влажнoсти вoздуха измеряются на высoте 2 м в тени вдали oт зданий и деревьев.
Скoрoсть ветра измеряется на высoте 10 м (на урoвне рoста челoвека скoрoсть ветра ниже в 1.5-2 раза). Если метеoстанция нахoдится в гoрoде или в лесу, тo скoрoсть ветра занижена на 2-4 м/с пo сравнению с oткрытым местoм. Скoрoсть ветра над акватoриями крупных рек и oзёр, а также на вершинах хoлмoв на 2-5 м/с выше, чем в oбычных услoвиях.
Атмoсфернoе давление в разных тoчках местнoсти мoжет значительнo oтличаться oт давления на метеoстанции, в зависимoсти oт услoвий рельефа (при пoдъёме на 10 м давление пoнижается примернo на 1 мм рт.ст.).